Metropolis, IL

5:04 AM CST on February 21, 2017 (GMT -0600)
Metropolis

Weather History for KM30 - May, 2013

Change the Weather History Date:

Friday, May 24, 2013

  Actual Average (KPAH) Record (KPAH)
Temperature  
Mean Temperature 58 °F -  
Max Temperature 70 °F 79 °F 93 °F (1996)
Min Temperature 47 °F 58 °F 45 °F (1961)
Degree Days  
Heating Degree Days 6    
Growing Degree Days 8 (Base 50)    
Moisture  
Dew Point 43 °F    
Average Humidity 60    
Maximum Humidity 92    
Minimum Humidity 30    
Precipitation  
Precipitation 0.00 in - - ()
Sea Level Pressure  
Sea Level Pressure 30.30 in    
Wind  
Wind Speed 4 mph (NNE)    
Max Wind Speed 10 mph    
Max Gust Speed 21 mph    
Visibility 10 miles    
Events      
Averages and records for this station are not official NWS values.
T = Trace of Precipitation, MM = Missing Value Source: NWS Daily Summary

Daily Weather History Graph

Daily Weather History Graph

Search for Another Location

Airport or City:

Trip Planner

Search our weather history database for the weather conditions in past years. The results will help you decide how hot, cold, wet, or windy it might be!

Date:

Astronomy

May. 24, 2013 Rise Set
Actual Time 5:40 AM CDT 8:04 PM CDT
Civil Twilight 5:10 AM CDT 8:34 PM CDT
Nautical Twilight 4:33 AM CDT 9:10 PM CDT
Astronomical Twilight 3:52 AM CDT 9:51 PM CDT
Moon 7:46 PM CDT (5/24) 5:10 AM CDT (5/24)
Length of Visible Light 15h 23m
Length of Day
14h 24m
Full, 100% of the Moon is Illuminated
May 24
Full
May 24
Full
May 31
Last Quarter
Jun 8
New
Jun 16
First Quarter

Hourly Weather History & Observations

Time (CDT) Temp. Dew Point Humidity Pressure Visibility Wind Dir Wind Speed Gust Speed Precip Events Conditions
12:35 AM 55.4 °F 47.7 °F 75% 30.19 in 10.0 mi NNE 6.9 mph 20.7 mph N/A   Scattered Clouds
12:55 AM 54.5 °F 47.3 °F 77% 30.20 in 10.0 mi NNE 6.9 mph - N/A   Scattered Clouds
1:15 AM 53.6 °F 46.0 °F 76% 30.21 in 10.0 mi NNE 10.4 mph 19.6 mph N/A   Scattered Clouds
1:35 AM 52.5 °F 45.5 °F 77% 30.21 in 10.0 mi NNE 3.5 mph - N/A   Clear
1:55 AM 51.8 °F 45.5 °F 79% 30.22 in 10.0 mi North 4.6 mph - N/A   Clear
2:15 AM 51.1 °F 45.5 °F 81% 30.22 in 10.0 mi North 3.5 mph - N/A   Clear
2:35 AM 50.4 °F 45.3 °F 83% 30.23 in 10.0 mi Calm Calm - N/A   Clear
2:55 AM 50.0 °F 45.1 °F 83% 30.23 in 10.0 mi North 4.6 mph - N/A   Clear
3:15 AM 50.0 °F 44.8 °F 82% 30.24 in 10.0 mi North 3.5 mph - N/A   Clear
3:35 AM 49.3 °F 44.6 °F 84% 30.24 in 10.0 mi Calm Calm - N/A   Clear
3:55 AM 48.2 °F 44.8 °F 88% 30.24 in 10.0 mi Calm Calm - N/A   Clear
4:15 AM 48.4 °F 44.8 °F 87% 30.25 in 10.0 mi North 3.5 mph - N/A   Clear
4:35 AM 48.2 °F 44.6 °F 87% 30.25 in 10.0 mi Calm Calm - N/A   Clear
4:55 AM 47.3 °F 45.1 °F 92% 30.26 in 10.0 mi North 3.5 mph - N/A   Clear
5:15 AM 47.8 °F 43.9 °F 86% 30.27 in 10.0 mi Calm Calm - N/A   Clear
5:35 AM 47.3 °F 43.3 °F 86% 30.28 in 10.0 mi North 4.6 mph - N/A   Clear
5:55 AM 47.3 °F 42.3 °F 83% 30.29 in 10.0 mi North 4.6 mph - N/A   Clear
6:15 AM 47.3 °F 43.0 °F 85% 30.29 in 10.0 mi North 5.8 mph - N/A   Clear
6:35 AM 47.7 °F 43.0 °F 84% 30.29 in 10.0 mi North 5.8 mph - N/A   Clear
6:55 AM 48.6 °F 41.2 °F 76% 30.30 in 10.0 mi North 8.1 mph - N/A   Clear
7:15 AM 49.3 °F 40.6 °F 72% 30.31 in 10.0 mi North 9.2 mph - N/A   Clear
7:35 AM 50.4 °F 40.5 °F 69% 30.32 in 10.0 mi North 8.1 mph - N/A   Clear
7:55 AM 51.1 °F 39.7 °F 65% 30.34 in 10.0 mi North 4.6 mph - N/A   Clear
8:15 AM 52.3 °F 40.3 °F 64% 30.35 in 10.0 mi North 4.6 mph - N/A   Clear
8:35 AM 53.1 °F 40.6 °F 63% 30.35 in 10.0 mi NNW 3.5 mph - N/A   Clear
8:55 AM 54.5 °F 41.5 °F 62% 30.36 in 10.0 mi Calm Calm - N/A   Clear
9:15 AM 55.0 °F 42.3 °F 62% 30.36 in 10.0 mi NNE 5.8 mph - N/A   Clear
9:35 AM 56.3 °F 43.0 °F 61% 30.36 in 10.0 mi Calm Calm - N/A   Clear
9:55 AM 58.1 °F 44.6 °F 61% 30.36 in 10.0 mi NW 3.5 mph - N/A   Clear
10:15 AM 58.3 °F 43.9 °F 59% 30.37 in 10.0 mi Calm Calm - N/A   Clear
10:35 AM 59.9 °F 45.1 °F 58% 30.36 in 10.0 mi Calm Calm - N/A   Clear
10:55 AM 59.9 °F 44.6 °F 57% 30.36 in 10.0 mi SSW 4.6 mph - N/A   Clear
11:15 AM 61.0 °F 44.6 °F 55% 30.36 in 10.0 mi NW 4.6 mph - N/A   Clear
11:35 AM 61.0 °F 43.9 °F 53% 30.36 in 10.0 mi Calm Calm - N/A   Clear
11:55 AM 62.8 °F 44.2 °F 51% 30.36 in 10.0 mi Calm Calm - N/A   Clear
12:15 PM 63.7 °F 44.1 °F 49% 30.36 in 10.0 mi East 3.5 mph - N/A   Clear
12:35 PM 64.2 °F 42.6 °F 45% 30.35 in 10.0 mi NNW 4.6 mph - N/A   Clear
12:55 PM 64.9 °F 43.0 °F 45% 30.36 in 10.0 mi Calm Calm - N/A   Clear
1:15 PM 66.0 °F 41.5 °F 41% 30.35 in 10.0 mi Calm Calm - N/A   Clear
1:35 PM 66.9 °F 42.6 °F 41% 30.35 in 10.0 mi WNW 5.8 mph - N/A   Clear
1:55 PM 67.3 °F 41.7 °F 39% 30.35 in 10.0 mi North 6.9 mph - N/A   Clear
2:15 PM 67.8 °F 40.6 °F 37% 30.34 in 10.0 mi Calm Calm - N/A   Clear
2:35 PM 68.4 °F 40.8 °F 37% 30.34 in 10.0 mi NW 4.6 mph - N/A   Clear
2:55 PM 69.4 °F 40.3 °F 35% 30.33 in 10.0 mi North 4.6 mph - N/A   Clear
3:15 PM 69.3 °F 39.4 °F 34% 30.32 in 10.0 mi NNE 3.5 mph - N/A   Clear
3:35 PM 70.0 °F 39.0 °F 32% 30.31 in 10.0 mi North 6.9 mph - N/A   Clear
3:55 PM 70.5 °F 38.1 °F 31% 30.31 in 10.0 mi NE 4.6 mph - N/A   Clear
4:15 PM 70.7 °F 39.0 °F 32% 30.30 in 10.0 mi NE 3.5 mph - N/A   Clear
4:35 PM 70.3 °F 38.5 °F 31% 30.29 in 10.0 mi North 4.6 mph - N/A   Clear
4:55 PM 70.2 °F 37.4 °F 30% 30.29 in 10.0 mi ENE 3.5 mph - N/A   Clear
5:15 PM 70.7 °F 37.4 °F 30% 30.29 in 10.0 mi NE 4.6 mph - N/A   Clear
5:35 PM 70.3 °F 37.2 °F 30% 30.29 in 10.0 mi East 4.6 mph - N/A   Clear
5:55 PM 70.2 °F 36.9 °F 30% 30.28 in 10.0 mi NE 3.5 mph - N/A   Clear
6:15 PM 69.8 °F 37.4 °F 31% 30.27 in 10.0 mi ENE 3.5 mph - N/A   Clear
6:35 PM 69.1 °F 36.1 °F 30% 30.27 in 10.0 mi ENE 4.6 mph - N/A   Clear
6:55 PM 68.9 °F 39.2 °F 34% 30.27 in 10.0 mi ENE 4.6 mph - N/A   Clear
7:15 PM 68.0 °F 40.1 °F 36% 30.27 in 10.0 mi Calm Calm - N/A   Clear
7:35 PM 65.7 °F 41.0 °F 41% 30.26 in 10.0 mi Calm Calm - N/A   Clear
7:55 PM 63.9 °F 40.8 °F 43% 30.26 in 10.0 mi Calm Calm - N/A   Clear
8:15 PM 62.6 °F 41.9 °F 47% 30.26 in 10.0 mi Calm Calm - N/A   Clear
8:35 PM 60.4 °F 42.6 °F 52% 30.26 in 10.0 mi Calm Calm - N/A   Clear
8:55 PM 59.7 °F 43.2 °F 54% 30.27 in 10.0 mi Calm Calm - N/A   Clear
9:15 PM 56.1 °F 46.2 °F 69% 30.28 in 10.0 mi Calm Calm - N/A   Clear
9:35 PM 55.4 °F 46.8 °F 73% 30.29 in 10.0 mi Calm Calm - N/A   Clear
9:55 PM 54.1 °F 46.8 °F 76% 30.29 in 10.0 mi Calm Calm - N/A   Clear
10:15 PM 53.6 °F 46.6 °F 77% 30.30 in 10.0 mi Calm Calm - N/A   Clear
10:35 PM 53.2 °F 46.9 °F 79% 30.31 in 10.0 mi Calm Calm - N/A   Clear
10:55 PM 52.7 °F 47.3 °F 82% 30.31 in 10.0 mi Calm Calm - N/A   Clear
11:15 PM 51.4 °F 46.8 °F 84% 30.31 in 10.0 mi Calm Calm - N/A   Clear
11:35 PM 51.8 °F 48.0 °F 87% 30.31 in 10.0 mi Calm Calm - N/A   Clear
11:55 PM 51.3 °F 47.3 °F 86% 30.31 in 10.0 mi Calm Calm - N/A   Clear